CDT,Max TemperatureF,Mean TemperatureF,Min TemperatureF,Max Dew PointF,MeanDew PointF,Min DewpointF,Max Humidity, Mean Humidity, Min Humidity, Max Sea Level PressureIn, Mean Sea Level PressureIn, Min Sea Level PressureIn, Max VisibilityMiles, Mean VisibilityMiles, Min VisibilityMiles, Max Wind SpeedMPH, Mean Wind SpeedMPH, Max Gust SpeedMPH,PrecipitationIn, CloudCover, Events, WindDirDegrees
2013-10-1,84,74,64,68,65,62,93,74,55,30.10,30.05,29.99,10,9,6,14,5,16,0.00,5,,172
2013-10-2,86,77,68,67,66,63,93,72,51,30.12,30.07,30.03,10,10,7,8,3,12,0.00,3,,175
2013-10-3,84,75,65,69,67,64,93,74,55,30.08,30.04,29.99,10,10,7,13,5,21,0.00,2,,176
2013-10-4,84,76,67,72,69,65,93,79,65,30.09,30.04,30.00,10,10,7,15,5,20,0.01,4,,183
2013-10-5,88,79,69,71,69,67,93,73,53,30.05,29.99,29.90,10,10,9,16,7,20,0.00,2,,191
2013-10-6,75,66,56,70,60,50,97,78,58,29.97,29.91,29.87,10,9,1,16,5,24,0.50,6,Rain,327
2013-10-7,70,60,49,51,48,44,93,69,44,30.09,30.02,29.97,10,10,10,16,5,20,0.00,0,,24
2013-10-8,75,62,49,58,52,46,93,72,50,30.10,30.07,30.04,10,10,10,14,7,17,0.00,1,,42
2013-10-9,73,65,57,64,60,55,100,84,68,30.16,30.10,30.05,10,9,2,13,3,15,0.00,5,,119
2013-10-10,81,69,56,64,59,55,100,74,48,30.15,30.09,30.02,10,5,0,7,1,9,0.00,3,Fog,40
2013-10-11,84,70,56,63,58,55,100,72,43,30.08,30.03,29.98,10,6,0,9,2,12,0.00,3,,229
2013-10-12,83,70,56,67,61,55,93,74,55,30.11,30.05,30.00,10,8,2,17,2,22,0.00,1,,338
2013-10-13,83,73,62,66,63,61,100,74,47,30.24,30.18,30.12,10,7,0,14,7,18,0.00,3,Fog,34
2013-10-14,83,71,59,64,61,58,100,72,43,30.20,30.13,30.06,10,8,3,10,4,14,0.00,1,,79
2013-10-15,79,72,65,66,62,60,90,75,60,30.08,30.03,29.97,10,10,10,16,7,20,0.01,5,Rain,177
2013-10-16,70,66,61,68,63,59,97,88,78,29.98,29.95,29.91,10,7,2,12,6,15,0.53,8,Rain,183
2013-10-17,67,60,53,58,55,53,93,80,67,30.02,29.98,29.92,10,10,8,10,4,14,0.00,7,,5
2013-10-18,69,59,49,55,51,46,100,78,56,30.10,30.03,29.96,10,8,0,9,1,10,0.00,3,Fog,43
2013-10-19,67,55,43,55,50,42,100,80,60,30.08,30.00,29.93,10,10,8,15,5,21,0.00,4,,349
2013-10-20,68,53,37,44,39,33,96,63,29,30.13,30.07,30.01,10,10,10,6,0,8,0.00,0,,210
2013-10-21,73,56,39,52,44,38,93,64,35,30.10,30.04,29.99,10,10,7,9,1,14,0.00,0,,224
2013-10-22,70,60,50,54,50,44,96,71,45,30.04,29.99,29.93,10,10,10,12,5,15,0.00,4,,6
2013-10-23,61,51,41,45,40,34,89,63,36,30.14,30.07,29.95,10,10,10,20,6,25,0.00,0,,344
2013-10-24,69,55,41,45,41,34,92,66,40,30.36,30.20,30.14,10,10,5,18,7,21,0.00,3,,9
2013-10-25,55,45,35,33,30,25,89,60,30,30.51,30.42,30.35,10,10,10,13,5,18,0.00,0,,40
2013-10-26,68,50,32,47,36,30,96,64,31,30.34,30.25,30.13,10,9,2,13,3,20,0.00,1,,229
2013-10-27,72,61,50,57,52,46,90,72,53,30.13,30.09,30.06,10,10,8,13,5,15,T,7,Rain,212
2013-10-28,72,64,55,58,56,54,93,73,53,30.23,30.16,30.09,10,10,9,9,2,15,0.00,7,,255
2013-10-29,80,66,52,63,57,51,100,78,56,30.26,30.22,30.15,10,8,2,14,5,16,0.00,4,,205
2013-10-30,79,69,59,62,59,57,90,71,52,30.23,30.14,30.02,10,10,7,16,7,23,0.00,1,,200
2013-10-31,71,68,65,68,66,60,93,85,76,30.00,29.80,29.67,10,7,2,29,15,39,1.13,7,Rain,206